Regional Weather Roundup
Issued by NWS

Home | Current Version | Previous Version | Graphics & Text | Print | Product List | Glossary Off
Versions: 1 2 3 4 5 6 7 8 9 10 11 12 13 14 15 16 17 18 19 20 21 22 23 24 25 26 27 28 29 30 31 32 33 34 35 36 37 38 39 40 41 42 43 44 45 46 47 48 49 50

249
ASUS43 KMKX 251121
RWRWI

WISCONSIN REGIONAL WEATHER ROUNDUP
NATIONAL WEATHER SERVICE MILWAUKEE/SULLIVAN WI
600 AM CDT SAT MAR 25 2017

NOTE: "FAIR" INDICATES FEW OR NO CLOUDS BELOW 12,000 FEET WITH NO
SIGNIFICANT WEATHER AND/OR OBSTRUCTIONS TO VISIBILITY.

WIZ001-002-006>008-014>016-023>028-251200-
NORTHWEST WISCONSIN

CITY           SKY/WX    TMP DP  RH WIND       PRES   REMARKS
SUPERIOR ARPT  CLOUDY    34  29  83 E10       30.27R WCI  26
ASHLAND        CLOUDY    33  29  85 NE10      30.28R WCI  25
HAYWARD        CLOUDY    35  29  78 NE7       30.22R WCI  29
SIREN          CLOUDY    34  30  86 NE5       30.22R WCI  30
CUMBERLAND     CLOUDY    34  30  86 E12       30.19F WCI  25
RICE LAKE      CLOUDY    35  31  83 CALM      30.21S
CHETEK         CLOUDY    35  31  86 CALM      30.21R
LADYSMITH      CLOUDY    35  31  85 E8        30.22R WCI  29
EAU CLAIRE     CLOUDY    36  31  82 E16       30.18R WCI  26
MENOMONIE      CLOUDY    37  32  82 NE8       30.19R WCI  31
NEW RICHMOND   CLOUDY    35  30  82 NE9       30.18S WCI  28
OSCEOLA        CLOUDY    36  31  81 NE7       30.22R WCI  31
$$

WIZ003>005-009-010-017-018-251200-
NORTH CENTRAL WISCONSIN

CITY           SKY/WX    TMP DP  RH WIND       PRES   REMARKS
MANITOWISH WTR CLOUDY    31  31 100 NE7       30.22R WCI  24
ARBOR VITAE    CLOUDY    34  32  92 E3        30.21R
WOODRUFF       CLOUDY    34  32  92 E3        30.21R
RHINELANDER    CLOUDY    33  31  92 E12       30.22R WCI  24
EAGLE RIVER    LGT SNOW  32  32  99 E6        30.22R WCI  26
LAND O LAKES   CLOUDY    32  32  99 NE5       30.23S WCI  27
PHILLIPS       CLOUDY    33  31  93 NE7       30.20S WCI  26
TOMAHAWK       CLOUDY    32  29  89 E6        30.22R WCI  27
MEDFORD        CLOUDY    32  30  91 E13       30.18R WCI  22
MERRILL        CLOUDY    33  31  93 E9        30.21R WCI  25
$$

WIZ029-030-035-036-043>047-251200-
CENTRAL WISCONSIN

CITY           SKY/WX    TMP DP  RH WIND       PRES   REMARKS
WAUSAU         CLOUDY    34  30  85 E9        30.19R WCI  27
MOSINEE        CLOUDY    34  32  93 NE14G21   30.19R WCI  24
MARSHFIELD     CLOUDY    33  30  88 E16       30.16R WCI  23
STEVENS POINT  CLOUDY    32  31  96 NE12G20   30.18R WCI  23
WAUPACA        CLOUDY    37  33  87 NE8G16    30.18S WCI  30
WAUTOMA        CLOUDY    35  32  88 NE14      30.15R WCI  26
WISC RAPIDS    CLOUDY    35  32  88 E14       30.17S WCI  26
CAMP DOUGLAS   CLOUDY    35  33  93 NE7       30.15R WCI  29
$$

WIZ011>013-019>022-031-037>040-048>050-251200-
NORTHEAST WISCONSIN

CITY           SKY/WX    TMP DP  RH WIND       PRES   REMARKS
ANTIGO         CLOUDY    32  30  92 E10       30.20S WCI  24
SHAWANO        CLOUDY    36  32  86 NE8       30.22R WCI  30
OCONTO         PTCLDY    34  32  92 NE7       30.23R WCI  28
STURGEON BAY   CLOUDY    35  32  88 NE12      30.22R WCI  27
GREEN BAY      CLOUDY    35  34  96 NE16      30.20R WCI  25
MANITOWOC      CLOUDY    36  34  92 NE9       30.18R WCI  29
APPLETON       CLOUDY    34  34 100 NE15G21   30.15R WCI  24
CLINTONVILLE   CLOUDY    34  32  93 NE9       30.20R WCI  26
OSHKOSH        MIX PCPN  34  32  92 NE17G26   30.15R FOG     WCI  23
$$

WIZ032>034-041-042-053>061-251200-
SOUTHWEST WISCONSIN

CITY           SKY/WX    TMP DP  RH WIND       PRES   REMARKS
LA CROSSE      CLOUDY    39  34  82 NE8       30.12S HAZE    WCI  33
SPARTA         CLOUDY    35  33  92 NE9       30.15R WCI  28
VIROQUA        CLOUDY    35  34  99 NE18G25   30.08R WCI  24
BOSCOBEL       CLOUDY    38  34  85 VRB7G18   30.08S WCI  33
PRAIRIE DU CHI LGT RAIN  37  36  96 NE5       30.06S WCI  33
PLATTEVILLE    CLOUDY    37  37  99 NE21      30.02S WCI  27
$$

WIZ056-057-062-063-064-067-068-251200-
SOUTH CENTRAL WISCONSIN

CITY           SKY/WX    TMP DP  RH WIND       PRES   REMARKS
REEDSBURG      CLOUDY    34  34 100 NE9G17    30.12R WCI  27
BARABOO/DELLS  CLOUDY    34  33  96 NE13G20   30.12R FOG     WCI  25
LONE ROCK      CLOUDY    37  33  85 NE14      30.10R WCI  28
MINERAL POINT  CLOUDY    36  36 100 NE17G23   30.04S WCI  25
MADISON        CLOUDY    36  34  92 NE15      30.09S WCI  27
MIDDLETON      CLOUDY    37  35  94 NE12      30.10R WCI  29
WATERTOWN      CLOUDY    36  36 100 NE8       30.10R WCI  30
MONROE         LGT RAIN  36  36 100 NE20      30.04S WCI  25
JANESVILLE     CLOUDY    37  37 100 NE10G16   30.06S WCI  30
$$

WIZ051-052-058>065-066-070>072-251200-
SOUTHEAST WISCONSIN

CITY           SKY/WX    TMP DP  RH WIND       PRES   REMARKS
MILWAUKEE      LGT RAIN  38  35  89 N16       30.10R WCI  29
WAUKESHA       CLOUDY    36  34  93 NE8G23    30.11R WCI  29
MILWAUKEE/TIMM CLOUDY    36  34  93 NE13G23   30.12R WCI  27
RACINE         CLOUDY    38  35  89 NE13      30.11R WCI  30
KENOSHA        CLOUDY    38  36  92 NE13      30.08R WCI  30
FOND DU LAC    CLOUDY    36  33  89 NE13      30.15R WCI  27
SHEBOYGAN      MIX PCPN  36  34  92 NE16      30.15R FOG     WCI  26
WEST BEND      LGT RAIN  36  36 100 NE12G17   30.12R WCI  27
JUNEAU         CLOUDY    35  34  96 NE9       30.12R WCI  28
$$

LSZ147-162-251200-
LAKE SUPERIOR

STATION/POSITION TIME  TEMP    WIND        PRES    WAVE
                       AIR SEA DIR/SP/G            HT/PER
                 (UTC) (F)     (DEG/KT/KT) (MB)    (FT/S)
DEVILS ISLAND    1100   34      70/ 20/ 23 1026.9R
PORT WING        1040   34      70/  7/ 11 1025.4R
SAXON HARBOR     1040   33      60/  8/  9 1024.7S
$$

LMZ867-665-643>646-251200-
LAKE MICHIGAN

STATION/POSITION TIME  TEMP    WIND        PRES    WAVE
                       AIR SEA DIR/SP/G            HT/PER
                 (UTC) (F)     (DEG/KT/KT) (MB)    (FT/S)
CHAMBERS ISLAND  1040   33      20/ 12/ 15 1023.4R
NORTHPORT PIER   1040   35      40/ 13/ 16 1024.4R
SISTER BAY       0951   35      20/  7/ 10   N/A
KEWAUNEE LAKESHO 1100   36      40/ 14/ 19 1022.1
SHEBOYGAN LAKESH 1100   36      20/ 18/ 20 1021.7R
PORT WASHINGTON  1030   37      30/ 12/ 17 1021.3R
MILWAUKEE LAKESH 1100   37      30/ 15/ 17   N/A
KENOSHA   LAKESH 1100   37      20/ 18/ 20 1018.6
$$

TC  - TEMPERATURE IN CELSIUS
VSB - VISIBILITY IN STATUTE MILES
WCI - WIND CHILL INDEX
HX  - HEAT INDEX





USA.gov is the U.S. government's official web portal to all federal, state and local government web resources and services.